Liberal, Kansas, United States (67901)
Lat: 37.04N, Lon: 100.92W
Wx Zone: KSZ086
Local Info
Past Weather Observations for Tuesday, August 19, 2014

NOTE: This archive is for the closest National Weather Service station to Liberal. Information may differ from the station used for current weather conditions.

Click here for Long-term Archive

Time Weather Temperature Dewpoint Humidity Pressure Winds Precip Visibility
23:55
Clear
77°F / 25°C 59°F / 15°C 54% 29.92 in
(1013 mb)
SSE 12.7 mph
(SSE 20 kph)
- 10SM
23:35
Clear
77°F / 25°C 59°F / 15°C 54% 29.92 in
(1013 mb)
SSE 13.8 mph
(SSE 22 kph)
- 10SM
23:15
Clear
79°F / 26°C 59°F / 15°C 51% 29.92 in
(1013 mb)
SSE 13.8 mph
(SSE 22 kph)
- 10SM
22:55
Clear
79°F / 26°C 59°F / 15°C 51% 29.89 in
(1012 mb)
S 15 mph
(S 24 kph)
- 10SM
22:35
Clear
79°F / 26°C 59°F / 15°C 51% 29.89 in
(1012 mb)
SSE 15 mph
(SSE 24 kph)
- 10SM
22:15
Clear
79°F / 26°C 57°F / 14°C 48% 29.89 in
(1012 mb)
SSE 12.7 mph
(SSE 20 kph)
- 10SM
21:55
Clear
79°F / 26°C 57°F / 14°C 48% 29.89 in
(1012 mb)
SSE 12.7 mph
(SSE 20 kph)
- 10SM
21:35
Clear
81°F / 27°C 57°F / 14°C 45% 29.89 in
(1012 mb)
SSE 12.7 mph
(SSE 20 kph)
- 10SM
21:15
Clear
81°F / 27°C 57°F / 14°C 45% 29.89 in
(1012 mb)
SSE 10.4 mph
(SSE 17 kph)
- 10SM
20:55
Clear
81°F / 27°C 57°F / 14°C 45% 29.89 in
(1012 mb)
SSE 10.4 mph
(SSE 17 kph)
- 10SM
20:35
Clear
82°F / 28°C 57°F / 14°C 42% 29.86 in
(1011 mb)
SSE 10.4 mph
(SSE 17 kph)
- 10SM
20:15
Clear
82°F / 28°C 57°F / 14°C 42% 29.86 in
(1011 mb)
SSE 11.5 mph
(SSE 19 kph)
- 10SM
19:55
Clear
84°F / 29°C 57°F / 14°C 40% 29.83 in
(1010 mb)
SSE 10.4 mph
(SSE 17 kph)
- 10SM
19:35
Clear
86°F / 30°C 57°F / 14°C 38% 29.83 in
(1010 mb)
SSE 12.7 mph
(SSE 20 kph)
- 10SM
19:15
Clear
88°F / 31°C 57°F / 14°C 35% 29.83 in
(1010 mb)
SSE 11.5 mph
(SSE 19 kph)
- 10SM
18:55
Clear
90°F / 32°C 57°F / 14°C 33% 29.83 in
(1010 mb)
SSE 12.7 mph
(SSE 20 kph)
- 10SM
18:35
Clear
90°F / 32°C 55°F / 13°C 31% 29.83 in
(1010 mb)
SSE 16.1 mph
(SSE 26 kph)
- 10SM
18:15
Clear
91°F / 33°C 55°F / 13°C 30% 29.83 in
(1010 mb)
S 20.7 mph
(S 33 kph)
- 10SM
17:55
Clear
93°F / 34°C 55°F / 13°C 28% 29.83 in
(1010 mb)
SSE 18.4 mph
(SSE 30 kph)
- 10SM
17:35
Clear
93°F / 34°C 55°F / 13°C 28% 29.83 in
(1010 mb)
SSE 16.1 mph
(SSE 26 kph)
- 10SM
17:15
Clear
95°F / 35°C 54°F / 12°C 25% 29.83 in
(1010 mb)
S 17.3 mph
(S 28 kph)
- 10SM
16:55
Clear
95°F / 35°C 55°F / 13°C 26% 29.83 in
(1010 mb)
SSE 19.6 mph
(SSE 32 kph)
- 10SM
16:35
Clear
97°F / 36°C 54°F / 12°C 23% 29.83 in
(1010 mb)
SSE 19.6 mph
(SSE 32 kph)
- 10SM
16:15
Clear
97°F / 36°C 55°F / 13°C 25% 29.83 in
(1010 mb)
SSE 21.9 mph
(SSE 35 kph)
- 10SM
15:55
Clear
97°F / 36°C 57°F / 14°C 27% 29.83 in
(1010 mb)
S 17.3 mph
(S 28 kph)
- 10SM
15:35
Clear
97°F / 36°C 55°F / 13°C 25% 29.83 in
(1010 mb)
S 16.1 mph
(S 26 kph)
- 10SM
15:15
Clear
97°F / 36°C 55°F / 13°C 25% 29.86 in
(1011 mb)
S 16.1 mph
(S 26 kph)
- 10SM
14:55
Clear
97°F / 36°C 57°F / 14°C 27% 29.86 in
(1011 mb)
SSE 17.3 mph
(SSE 28 kph)
- 10SM
14:35
Clear
93°F / 34°C 54°F / 12°C 26% 29.86 in
(1011 mb)
S 19.6 mph
(S 32 kph)
- 10SM
14:15
Clear
97°F / 36°C 55°F / 13°C 25% 29.86 in
(1011 mb)
S 21.9 mph
(S 35 kph)
- 10SM
13:55
Clear
97°F / 36°C 55°F / 13°C 25% 29.86 in
(1011 mb)
S 15 mph
(S 24 kph)
- 10SM
13:35
Clear
97°F / 36°C 55°F / 13°C 25% 29.89 in
(1012 mb)
S 18.4 mph
(S 30 kph)
- 10SM
13:15
Clear
97°F / 36°C 55°F / 13°C 25% 29.89 in
(1012 mb)
SSE 16.1 mph
(SSE 26 kph)
- 10SM
12:55
Clear
97°F / 36°C 57°F / 14°C 27% 29.89 in
(1012 mb)
S 18.4 mph
(S 30 kph)
- 10SM
12:35
Clear
93°F / 34°C 59°F / 15°C 32% 29.89 in
(1012 mb)
SW 12.7 mph
(SW 20 kph)
- 10SM
12:15
Clear
90°F / 32°C 61°F / 16°C 38% 29.89 in
(1012 mb)
S 13.8 mph
(S 22 kph)
- 10SM
11:55
Clear
90°F / 32°C 61°F / 16°C 38% 29.92 in
(1013 mb)
SSE 13.8 mph
(SSE 22 kph)
- 10SM
11:35
Clear
88°F / 31°C 61°F / 16°C 40% 29.92 in
(1013 mb)
S 17.3 mph
(S 28 kph)
- 10SM
11:15
Clear
90°F / 32°C 61°F / 16°C 38% 29.92 in
(1013 mb)
S 17.3 mph
(S 28 kph)
- 10SM
10:55
Clear
88°F / 31°C 63°F / 17°C 43% 29.92 in
(1013 mb)
S 13.8 mph
(S 22 kph)
- 10SM
10:35
Clear
88°F / 31°C 63°F / 17°C 43% 29.95 in
(1014 mb)
SW 15 mph
(SW 24 kph)
- 10SM
10:15
Clear
84°F / 29°C 61°F / 16°C 45% 29.95 in
(1014 mb)
SSE 16.1 mph
(SSE 26 kph)
- 10SM
09:55
Clear
84°F / 29°C 63°F / 17°C 48% 29.95 in
(1014 mb)
S 17.3 mph
(S 28 kph)
- 10SM
09:35
Clear
82°F / 28°C 63°F / 17°C 51% 29.95 in
(1014 mb)
S 13.8 mph
(S 22 kph)
- 10SM
09:15
Clear
81°F / 27°C 63°F / 17°C 54% 29.95 in
(1014 mb)
SSE 12.7 mph
(SSE 20 kph)
- 10SM
08:55
Clear
81°F / 27°C 63°F / 17°C 54% 29.95 in
(1014 mb)
S 10.4 mph
(S 17 kph)
- 10SM
08:35
Clear
79°F / 26°C 63°F / 17°C 58% 29.95 in
(1014 mb)
S 13.8 mph
(S 22 kph)
- 10SM
08:15
Clear
77°F / 25°C 61°F / 16°C 57% 29.95 in
(1014 mb)
S 11.5 mph
(S 19 kph)
- 10SM
07:55
Clear
75°F / 24°C 61°F / 16°C 61% 29.98 in
(1015 mb)
S 11.5 mph
(S 19 kph)
- 10SM
07:35
Clear
73°F / 23°C 59°F / 15°C 61% 29.98 in
(1015 mb)
S 8.1 mph
(S 13 kph)
- 10SM
07:15
Clear
72°F / 22°C 59°F / 15°C 65% 29.98 in
(1015 mb)
S 11.5 mph
(S 19 kph)
- 10SM
06:55
Clear
70°F / 21°C 57°F / 14°C 64% 29.98 in
(1015 mb)
S 11.5 mph
(S 19 kph)
- 10SM
06:35
Clear
70°F / 21°C 57°F / 14°C 64% 29.98 in
(1015 mb)
S 10.4 mph
(S 17 kph)
- 10SM
06:15
Clear
68°F / 20°C 57°F / 14°C 69% 29.98 in
(1015 mb)
S 6.9 mph
(S 11 kph)
- 10SM
05:55
Clear
70°F / 21°C 57°F / 14°C 64% 29.95 in
(1014 mb)
S 11.5 mph
(S 19 kph)
- 10SM
05:35
Clear
70°F / 21°C 57°F / 14°C 64% 29.98 in
(1015 mb)
S 9.2 mph
(S 15 kph)
- 10SM
05:15
Clear
70°F / 21°C 57°F / 14°C 64% 29.98 in
(1015 mb)
SSE 9.2 mph
(SSE 15 kph)
- 10SM
04:55
Clear
70°F / 21°C 57°F / 14°C 64% 29.98 in
(1015 mb)
SSE 8.1 mph
(SSE 13 kph)
- 10SM
04:35
Clear
70°F / 21°C 57°F / 14°C 64% 29.98 in
(1015 mb)
SE 10.4 mph
(SE 17 kph)
- 10SM
04:15
Clear
72°F / 22°C 55°F / 13°C 57% 29.98 in
(1015 mb)
SE 6.9 mph
(SE 11 kph)
- 10SM
03:55
Clear
72°F / 22°C 57°F / 14°C 61% 29.98 in
(1015 mb)
SE 9.2 mph
(SE 15 kph)
- 10SM
03:35
Clear
73°F / 23°C 55°F / 13°C 53% 29.98 in
(1015 mb)
SE 8.1 mph
(SE 13 kph)
- 10SM
03:15
Clear
73°F / 23°C 55°F / 13°C 53% 29.95 in
(1014 mb)
SSE 11.5 mph
(SSE 19 kph)
- 10SM
02:55
Partly Cloudy
73°F / 23°C 55°F / 13°C 53% 29.95 in
(1014 mb)
SE 15 mph
(SE 24 kph)
- 10SM
02:35
Partly Cloudy
73°F / 23°C 55°F / 13°C 53% 29.98 in
(1015 mb)
ESE 17.3 mph
(ESE 28 kph)
- 10SM
02:15
Partly Cloudy
73°F / 23°C 55°F / 13°C 53% 30.01 in
(1016 mb)
ENE 12.7 mph
(ENE 20 kph)
- 10SM
01:55
Clear
75°F / 24°C 54°F / 12°C 47% 30.01 in
(1016 mb)
NE 16.1 mph
(NE 26 kph)
- 10SM
01:35
Clear
75°F / 24°C 54°F / 12°C 47% 30.01 in
(1016 mb)
NE 17.3 mph
(NE 28 kph)
- 10SM
01:15
Clear
Thunder Storms
77°F / 25°C 55°F / 13°C 47% 30.01 in
(1016 mb)
NNE 18.4 mph
(NNE 30 kph)
- 10SM
00:55
Clear
79°F / 26°C 54°F / 12°C 42% 29.95 in
(1014 mb)
SE 8.1 mph
(SE 13 kph)
- 10SM
00:35
Clear
79°F / 26°C 54°F / 12°C 42% 29.95 in
(1014 mb)
S 18.4 mph
(S 30 kph)
- 10SM
00:15
Clear
79°F / 26°C 54°F / 12°C 42% 29.95 in
(1014 mb)
SE 11.5 mph
(SE 19 kph)
- 10SM
Time Weather Temperature Dewpoint Humidity Pressure Winds Precip Visibility


Weather for websites

WeatherForYou.com, LLC is not responsible for any damages or problems caused by this service. Current weather conditions are obtained from the closest station including government and personal stations which may have varying degrees of accuracy. Weather forecasts are derived from the NOAA NDFD. Like all things, this site belongs to Jesus Christ... He just trusts me to maintain it. If you have any questions or comments email webmaster@weatherforyou.com

Copyright © 2014, WeatherForYou.com LLC. All rights reserved.